Regional Weather Roundup
Issued by NWS Northern Indiana

Home | Current Version | Previous Version | Graphics & Text | Print | Product List | Glossary On
Versions: 1 2 3 4 5 6 7 8 9 10 11 12 13 14 15 16 17 18 19 20 21 22 23 24 25 26 27 28 29 30 31 32 33 34 35 36 37 38 39 40 41 42 43 44 45 46 47 48 49 50
526
ASUS43 KIWX 250210
RWRIWX

KIWX WEATHER ROUNDUP
NATIONAL WEATHER SERVICE NORTHERN INDIANA
900 PM EST FRI NOV 24 2017

NOTE: "FAIR" INDICATES FEW OR NO CLOUDS BELOW 12,000 FEET WITH NO
SIGNIFICANT WEATHER AND/OR OBSTRUCTIONS TO VISIBILITY.

* THESE STATIONS ARE NOT UNDER NWS QUALITY CONTROL. THEY ALSO MAY NOT
  REPORT WEATHER SUCH AS PRECIPITATION OR FOG.

INZ001>027-250300-
NORTHERN INDIANA

CITY           SKY/WX    TMP DP  RH WIND       PRES   REMARKS
GARY*          PTCLDY    55  34  44 S16G37    29.52F
VALPARAISO       N/A     52  36  54 S15G28    29.56S
MICHIGAN CITY* MOCLDY    50  34  53 S17G24    29.54R
LAPORTE*       PTCLDY    50  36  58 SW10G18   29.56S
KNOX*          PTCLDY    50  34  53 S15G25    29.56S
SOUTH BEND     PTCLDY    50  36  58 SW17      29.56S
ELKHART*       CLEAR     50  34  53 SW16      29.56S
GOSHEN         CLEAR     51  32  48 S18G25    29.57R
MONTICELLO*    PTCLDY    51  32  48 S18G25    29.59S
LOGANSPORT*    CLEAR     46  34  61 S15       29.63R
ROCHESTER*     CLEAR     52  34  50 S15G22    29.60S
WARSAW*        PTCLDY    50  32  50 S10G17    29.59R
AUBURN*        CLEAR     50  32  50 S13G24    29.59F
FORT WAYNE     PTCLDY    50  33  52 S25G31    29.59F
HUNTINGTON*    CLEAR     49  30  48 S10G20    29.60F
PERU/GRISSOM   MOCLDY    51  34  52 SW18G26   29.61R
MARION*        CLEAR     47  32  55 S18G25    29.63F

$$
INZ028>050-250300-
CENTRAL INDIANA

CITY           SKY/WX    TMP DP  RH WIND       PRES   REMARKS
LAFAYETTE      CLEAR     51  34  52 S9        29.62R
KOKOMO*        CLEAR     50  33  52 S20       29.63R
MUNCIE*        CLEAR     50  28  42 S16G24    29.65F
INDIANAPOLIS   PTCLDY    51  30  44 S16       29.68F

$$
MIZ043>046-050>051-056>058-064>065-071>073-077>080-250300-
SOUTHWEST LOWER MICHIGAN

CITY           SKY/WX    TMP DP  RH WIND       PRES   REMARKS
BATTLE CREEK   CLEAR     50  34  54 S20G30    29.53S
BENTON HARBOR  PTCLDY    54  34  46 S17G24    29.51S
COLDWATER*     CLEAR     50  31  48 SW12G20   29.57R
HILLSDALE*     CLEAR     46  32  57 S15G23    29.57R
HOLLAND        CLEAR     55  36  48 SW25G36   29.48F
GRAND RAPIDS   PTCLDY    53  37  54 SW21G29   29.47F
KALAMAZOO      CLEAR     52  32  46 S18G28    29.53F
STURGIS*       CLEAR     48  34  58 SW15      29.56R
THREE RIVERS*  FAIR      51  35  53 SW15      29.55S

$$
OHZ001>008-015>018-024>025-250300-
NORTHWEST OHIO

CITY           SKY/WX    TMP DP  RH WIND       PRES   REMARKS
WAUSEON*       FAIR      48  34  57 S20       29.59F
DEFIANCE       CLEAR     48  31  51 S18G26    29.60F
FINDLAY        CLOUDY    49  29  46 S21G29    29.64F
TOLEDO EXPRESS CLOUDY    50  32  50 S17G26    29.60F
TOLEDO METCALF CLOUDY    48  30  49 S18       29.63F
LIMA           PTCLDY    49  29  46 S18G25    29.66F

$$
AND FOR LAKE MICHIGAN COASTAL AND OPEN LAKE BUOY OBSERVATIONS

STATION/POSITION TEMP    WIND        PRES    VSBY  WAVE
                 AIR SEA DIR/SP/G                  HT/PER
                 (F)     (DEG/KT/KT) (MB)    (MI)  (FT/S)
CALUMET HARBOR    53     190/ 16/ 25  998.6R
MICHIGAN CITY     53     170/ 24/ 29   N/A
BURNS HARBOR      53     190/ 21/ 30 1000.0S
SAINT JOSEPH      56     200/ 23/ 33  999.7
SOUTH LAKE BUOY   51 47  210/ 21/ 23  997.0          5/ 6

$$
&&




USA.gov is the U.S. government's official web portal to all federal, state and local government web resources and services.